COSMOS 2251 DEB

Satellite information

Favourite Embed

Satellite Type and Status

DEBRISIN ORBIT

Key statistics

Satellite COSMOS 2251 DEB at a glance.

Uptime

11819

Days in orbit

Revolutions

≈ 14.6

Per day

Orbit

LEO

Low Earth Orbit

Inclination

74.0

Latest

Satellite identification and parameters

Extended collection of information and parameters for COSMOS 2251 DEB.

Object identification

Identified? True

Debris? True

Object name: COSMOS 2251 DEB

International designator: 1993-036LW

Object number (NORAD): 34276

Object ID (CCSDS): 34276

Country: COMMONWEALTH OF INDEPENDENT STATES (CIS)

Current information (Y/N): Y

RCS size: SMALL

Orbital parameters

Period: 98.85 minutes

Inclination: 74.0235 deg

SMA: 7081.803 km

Apoapsis: 719.425 km

Periapsis: 687.911 km

RAAN: 178.2822 deg

Eccentricy: 0.00222499

Argument of periapsis: 329.4669 deg

Mean anomaly: 152.4688 deg

Mean motion: 14.56756687 rev/day

Mean motion (dot): 0.00003691 rev/day2

B* drag term: 0.00082872083 1/REarth

Two-line elements (TLE)

Creation date: Oct. 25, 2025, 3:11 a.m.

Reference frame: TEME

Reference center: EARTH

Epoch: Oct. 24, 2025, 7:47 p.m. UTC

TLE line 0: 0 COSMOS 2251 DEB

TLE line 1: 1 34276U 93036LW 25297.82434266 .00003691 00000-0 82872-3 0 9992

TLE line 2: 2 34276 74.0235 178.2822 0022250 329.4669 152.4688 14.56756687878805

Live tracking on map

Real-time ground track for satellite COSMOS 2251 DEB.

In-orbit conjunctions

A list of the most updated potential collisions computed for object COSMOS 2251 DEB.

Target Orbit TCA Probability of collision Miss distance Type
CZ-6A DEB LEO 2024-12-30 10:20:25 0.0001149668 938.0 (m) DEBRIS
CZ-6A DEB LEO 2024-12-17 05:14:21 0.000100856 947.0 (m) DEBRIS

Associated space launch

Military communications satellite. Destroyed in a collision with Iridium 33.

COSMOS 2251 DEB was lifted into orbit during the mission ‘Kosmos-3M | Strela-2M 51’, on board a Kosmos-3M space rocket.

The launch took place on June 16, 1993, 4:17 a.m. from 132/1 (132L).

For more information about the launch, click the button.

Launch to space Kosmos-3M | Strela-2M 51
Kosmos-3M | Strela-2M 51

Agency: N/A

Status: Launch Successful

Launch date: June 16, 1993, 4:17 a.m. UTC

Rocket: Kosmos-3M

Launch pad: 132/1 (132L)

Location: Plesetsk Cosmodrome, Russian Federation

...

Latest news about this satellite

There are no fresh news available about this satellite. Check back as we update our databases every day.


Newsletter sign-up

Weekly statistics, charts and insights to help you stay on top of the space industry.